Погода Шахунья

Погода Шахунья : погода сейчас, прогноз погоды и архив. Всё, что Вы хотите узнать о погоде Шахунья!

Поиск расширенной информации на нашем сайте:

Другие новости

Новости СМИ2

Главная страница сайта

Новости сайта

03.07.2017

Напоминаем, что на нашем специализированном сайте Метеоцентр.Азия вы можете получить высокодетализированные автоматические прогнозы погоды по пунктам России, СНГ и мира в авиационном формате (включающие направление и скорость ветра, видимость, явления погоды, количество и форму облачности, нижнюю и верхнюю границу облачности).


Погода Шахунья - сегодня

Время (UTC), дата Ветер
(°,м/с) 
Видим.   Явления Облачность Т
(°С)
Тd
(°С)
f(%) Тe
(°С)
Pmin
(гПа)
dP
(гПа)
Po
(мм)
O2
(г/м3)
Тmin Tmax R s Состояние
почвы
15 11.02.18 130 (ЮВ) 2-3{03}  4000 м    8/0 средняя, верхняя 
[Ac lent|Ci sp]
-7.8 -11.4 75 -9  1029.3  -0.6  755  314    -3.2       
21 11.02.18 140 (ЮВ) 2-2{03}  4000 м    ясно 
-12 -14 85 -14  1028.8  -0.2  754  319           
03 12.02.18 130 (ЮВ) 2-2{03}  4000 м    ясно 
-15.3 -16.6 90 -18  1028.9  -0.4  754  323  -15.3      34  равномерный
сухой снег
100% 
09 12.02.18 350 (С) 1-1{02}  20000 м    ясно 
-5.9 -11.2 66 -6  1028.7  0.2  754  312           
18 12.02.18 150 (ЮВ) 1-1{03}  4000 м    ясно 
-11.3 -13.3 85 -11  1029.2  0.2  755  318           
21 12.02.18 090 (В) 2-2{02}  4000 м    ясно 
-12.8 -14.1 90 -15  1029.9  0.5  755  320           
03 13.02.18 060 (СВ) 1-1{02}  4000 м    ясно 
-16.9 -18.1 90 -17  1031  0.3  755  326  -17      34  равномерный
сухой снег
100% 
09 13.02.18 090 (В) 2-3{03}  20000 м    ясно 
-7.5 -13 65 -9  1031.3  0.5  756  315           
18 13.02.18 090 (В) 2-3{03}  4000 м    ясно 
-10.4 -13.2 80 -12  1032.2  0.2  757  318           
21 13.02.18 тихо () -0{03}  4000 м    ясно 
-14.2 -15.5 90 -14  1033.4  0.8  757  323           
03 14.02.18 090 (В) 1-1{02}  4000 м    ясно 
-17.7 -19.6 85 -18  1034.9  0.4  758  328  -18.5      34  равномерный
сухой снег
100% 
09 14.02.18 310 (СЗ) 1-1{02}  10 км    ясно 
-9.2 -12.7 76 -9  1035.6  0.8  759  318           
15 14.02.18 090 (В) 1-1{02}  4000 м    1/0 верхняя 
[Ci fib]
-11.2 -13.2 85 -11  1036.8  0.7  760  321    -6.6       
18 14.02.18 140 (ЮВ) 1-1{02}  4000 м    ясно 
-14.9 -16.9 85 -15  1037.6  0.3  760  325           
21 14.02.18 090 (В) 1-1{02}  4000 м    ясно 
-16.2 -18.1 85 -16  1038.3  0.6  761  327           
03 15.02.18 180 (Ю) 2-2{03}  4000 м    ясно 
-17.6 -19.5 85 -20  1039.9  0.8  762  330  -17.8      34  равномерный
сухой снег
100% 
06 15.02.18 160 (Ю) 1-1{02}  20000 м    ясно 
-15.9 -17.8 85 -16  1040.5  0.8  762  328           
09 15.02.18 200 (Ю) 2-2{02}  20000 м    ясно 
-8.5 -13.6 67 -10  1040.4  0.7  763  319           
18 15.02.18 160 (Ю) 3-3{04}  4000 м    ясно 
-12.2 -14.9 80 -16  1040.7  -0.2  763  323           
21 15.02.18 170 (Ю) 3-4{04}  4000 м    ясно 
-13.7 -16.4 80 -17  1041.1  0.2  763  325           
03 16.02.18 160 (Ю) 3-4{04}  4000 м    ясно 
-16.7 -18.6 85 -21  1040.7  -0.6  763  329  -16.8      34  равномерный
сухой снег
100% 
15 16.02.18 160 (Ю) 4-6{06}  4000 м    10/0 средняя 
[Ac As]
-8.2 -11.9 75 -12  1037.7  -0.9  761  317    -8.1  0.0     
03 17.02.18 180 (Ю) 4-6{07}  4000 м    10/0 средняя 
[Ac As]
-7.6 -10.6 79 -11  1035.4  -0.3  759  316  -8.2    0.0  34  равномерный
сухой снег
100% 
15 17.02.18 160 (Ю) 4-6{08}  4000 м    4/0 средняя 
[Ac lent]
-5.6 -10.3 69 -9  1032  -0.8  757  312    -3.3       
03 18.02.18 170 (Ю) 4-7{07}  4000 м  {снег}  10/10 1000 м 
[Sc]
-8.5 -10.4 86 -12  1029.2  -0.8  755  315  -8.5    0.4  35  равномерный
сухой снег
100% 
Время (UTC), дата Ветер
(°,м/с) 
Видим.   Явления Облачность Т
(°С)
Тd
(°С)
f(%) Тe
(°С)
Pmin
(гПа)
dP
(гПа)
Po
(мм)
O2
(г/м3)
Тmin Tmax R s Состояние
почвы

Для получения пояснительной информации подведите курсор к названию столбца.

ПОГОДА Шахунья - архив

Всё, что Вы хотите узнать о погоде Шахунья - удобно и подробно!

Выберите нужную дату (начиная с 1 января 2015* года) и нажмите кнопку "Найти".
Будут отображены архивные сводки погоды по пункту Шахунья, начиная с указанной даты.


Отображать данные в формате CSV (для использования в таблицах Excel)


Внимание! Наш архив погоды предназначен исключительно для личного некоммерческого использования в познавательных целях. Если Вам необходимы официальные справки о состоянии погоды (для производственных, юридических, коммерческих и т.п. целей), обращайтесь в органы Росгидромета.

*Примечание: данная дата относится к архиву по метеостанциям СССР (Россия, СНГ, Балтия).
Архив по метеостанциям Зарубежной Европы и Азии (кроме Китая) хранится 10 дней, по другим регионам земного шара (Китай, Африка, Америка, Австралия, Океания) - 1 день.

Шахунья - район местоположения метеостанции


Название, широта, долгота, высота метеостанции:
Шахунья 57.7°ш. 46.6°д. 175 м над ур. моря [Российская Федерация]

Дополнительная информация

В oтличие oт бoльшинства пoгoдных сайтoв мы публикуем пoдрoбную метеoинфoрмацию в детальнoм прoфессиoнальнoм фoрмате.

Характеристики температуры и влажнoсти вoздуха измеряются на высoте 2 м в тени вдали oт зданий и деревьев.
Скoрoсть ветра измеряется на высoте 10 м (на урoвне рoста челoвека скoрoсть ветра ниже в 1.5-2 раза). Если метеoстанция нахoдится в гoрoде или в лесу, тo скoрoсть ветра занижена на 2-4 м/с пo сравнению с oткрытым местoм. Скoрoсть ветра над акватoриями крупных рек и oзёр, а также на вершинах хoлмoв на 2-5 м/с выше, чем в oбычных услoвиях.
Атмoсфернoе давление в разных тoчках местнoсти мoжет значительнo oтличаться oт давления на метеoстанции, в зависимoсти oт услoвий рельефа (при пoдъёме на 10 м давление пoнижается примернo на 1 мм рт.ст.).